Weather History for Marshfield, MA

Change the Weather History Date:

Tuesday, November 13, 2012

  Actual Average (KPYM) Record (KPYM)
Temperature  
Mean Temperature 54 °F -  
Max Temperature 66 °F 51 °F 70 °F (1964)
Min Temperature 42 °F 33 °F 17 °F (1996)
Degree Days  
Heating Degree Days 11    
Growing Degree Days 4 (Base 50)    
Moisture  
Dew Point 50 °F    
Average Humidity 86    
Maximum Humidity 94    
Minimum Humidity 66    
Precipitation  
Precipitation 0.03 in - - ()
Sea Level Pressure  
Sea Level Pressure 30.26 in    
Wind  
Wind Speed 10 mph (West)    
Max Wind Speed 16 mph    
Max Gust Speed 26 mph    
Visibility 10 miles    
Events Rain    
Averages and records for this station are not official NWS values.
T = Trace of Precipitation, MM = Missing Value Source: NWS Daily Summary

Daily Weather History Graph

Daily Weather History Graph

Search for Another Location

Airport:

Trip Planner

Search our weather history database for the weather conditions in past years. The results will help you decide how hot, cold, wet, or windy it might be!

Date:

Astronomy

Nov. 13, 2012 Rise Set
Actual Time 6:30 AM EST 4:22 PM EST
Civil Twilight 6:00 AM EST 4:52 PM EST
Nautical Twilight 5:27 AM EST 5:26 PM EST
Astronomical Twilight 4:54 AM EST 5:59 PM EST
Moon 6:05 AM EST (11/13) 4:12 PM EST (11/13)
Length of Visible Light 10h 51m
Length of Day
9h 51m
Waning Crescent, 0% of the Moon is Illuminated
Nov 13
Waning Crescent
Nov 13
New
Nov 20
First Quarter
Nov 28
Full
Dec 6
Last Quarter

Hourly Weather History & Observations

Time (EST) Temp. Windchill Dew Point Humidity Pressure Visibility Wind Dir Wind Speed Gust Speed Precip Events Conditions
12:15 AM 64.4 °F - 60.8 °F 88% 30.26 in 10.0 mi South 12.7 mph 19.6 mph N/A   Mostly Cloudy
12:35 AM 64.4 °F - 60.8 °F 88% 30.25 in 10.0 mi South 12.7 mph 17.3 mph N/A   Overcast
12:55 AM 64.4 °F - 60.8 °F 88% 30.25 in 10.0 mi South 11.5 mph 18.4 mph N/A   Overcast
1:15 AM 64.4 °F - 62.6 °F 94% 30.24 in 10.0 mi SSE 10.4 mph 17.3 mph N/A   Overcast
1:35 AM 64.4 °F - 62.6 °F 94% 30.23 in 10.0 mi South 10.4 mph 16.1 mph N/A   Overcast
1:55 AM 66.2 °F - 62.6 °F 88% 30.23 in 10.0 mi South 11.5 mph 20.7 mph N/A   Mostly Cloudy
2:15 AM 64.4 °F - 62.6 °F 94% 30.22 in 10.0 mi South 13.8 mph 23.0 mph N/A   Scattered Clouds
2:35 AM 64.4 °F - 62.6 °F 94% 30.21 in 10.0 mi South 8.1 mph 18.4 mph N/A   Scattered Clouds
2:55 AM 64.4 °F - 60.8 °F 88% 30.20 in 10.0 mi South 12.7 mph 20.7 mph N/A   Scattered Clouds
3:15 AM 64.4 °F - 60.8 °F 88% 30.19 in 10.0 mi South 12.7 mph 20.7 mph N/A   Mostly Cloudy
3:35 AM 64.4 °F - 62.6 °F 94% 30.18 in 10.0 mi South 9.2 mph 21.9 mph N/A   Overcast
3:55 AM 64.4 °F - 60.8 °F 88% 30.17 in 10.0 mi South 13.8 mph 19.6 mph N/A   Mostly Cloudy
4:15 AM 64.4 °F - 60.8 °F 88% 30.18 in 10.0 mi South 12.7 mph 19.6 mph N/A   Mostly Cloudy
4:35 AM 64.4 °F - 60.8 °F 88% 30.17 in 10.0 mi South 11.5 mph 21.9 mph N/A   Mostly Cloudy
4:55 AM 64.4 °F - 60.8 °F 88% 30.17 in 10.0 mi South 9.2 mph 19.6 mph N/A   Overcast
5:15 AM 64.4 °F - 62.6 °F 94% 30.16 in 10.0 mi South 12.7 mph 26.5 mph N/A   Light Drizzle
5:35 AM 66.2 °F - 62.6 °F 88% 30.17 in 10.0 mi South 11.5 mph 24.2 mph N/A   Overcast
5:55 AM 66.2 °F - 60.8 °F 83% 30.17 in 10.0 mi South 10.4 mph 24.2 mph N/A   Mostly Cloudy
6:15 AM 64.4 °F - 60.8 °F 88% 30.17 in 10.0 mi South 16.1 mph 25.3 mph N/A   Mostly Cloudy
6:35 AM 64.4 °F - 60.8 °F 88% 30.17 in 10.0 mi South 15.0 mph 25.3 mph N/A   Scattered Clouds
6:55 AM 64.4 °F - 60.8 °F 88% 30.17 in 10.0 mi South 11.5 mph 20.7 mph N/A   Mostly Cloudy
7:15 AM 64.4 °F - 60.8 °F 88% 30.17 in 10.0 mi South 12.7 mph 20.7 mph N/A   Overcast
7:35 AM 64.4 °F - 60.8 °F 88% 30.17 in 10.0 mi South 9.2 mph 19.6 mph N/A   Mostly Cloudy
7:55 AM 64.4 °F - 60.8 °F 88% 30.17 in 6.0 mi South 11.5 mph 21.9 mph N/A   Light Drizzle
8:15 AM 64.4 °F - 60.8 °F 88% 30.17 in 10.0 mi South 9.2 mph 17.3 mph N/A   Mostly Cloudy
8:35 AM 64.4 °F - 62.6 °F 94% 30.18 in 10.0 mi South 9.2 mph 16.1 mph N/A   Overcast
8:55 AM 64.4 °F - 62.6 °F 94% 30.18 in 10.0 mi South 8.1 mph - N/A   Overcast
9:15 AM 64.4 °F - 62.6 °F 94% 30.19 in 10.0 mi SSW 4.6 mph - N/A   Overcast
9:35 AM 57.2 °F - 53.6 °F 88% 30.22 in 7.0 mi WNW 11.5 mph 18.4 mph N/A Rain Heavy Rain
9:55 AM 55.4 °F - 51.8 °F 88% 30.23 in 5.0 mi NW 5.8 mph - N/A   Overcast
10:15 AM 53.6 °F - 51.8 °F 94% 30.24 in 10.0 mi WNW 9.2 mph - N/A   Drizzle
10:35 AM 53.6 °F - 51.8 °F 94% 30.25 in 10.0 mi WNW 4.6 mph - N/A   Overcast
10:55 AM 53.6 °F - 51.8 °F 94% 30.24 in 10.0 mi NW 4.6 mph - N/A   Overcast
11:15 AM 53.6 °F - 50.0 °F 88% 30.25 in 10.0 mi WNW 4.6 mph - N/A   Overcast
11:35 AM 53.6 °F - 48.2 °F 82% 30.23 in 10.0 mi WNW 10.4 mph - N/A   Overcast
11:55 AM 53.6 °F - 46.4 °F 77% 30.23 in 10.0 mi West 5.8 mph - N/A Rain Light Rain
12:15 PM 51.8 °F - 48.2 °F 88% 30.23 in 10.0 mi West 3.5 mph - N/A   Overcast
12:35 PM 51.8 °F - 48.2 °F 88% 30.23 in 10.0 mi West 3.5 mph - N/A   Overcast
12:55 PM 53.6 °F - 48.2 °F 82% 30.23 in 10.0 mi Calm Calm - N/A   Overcast
1:15 PM 51.8 °F - 46.4 °F 82% 30.23 in 10.0 mi WNW 3.5 mph - N/A   Overcast
1:55 PM 51.8 °F - 46.4 °F 82% 30.25 in 10.0 mi West 3.5 mph - N/A Rain Light Rain
2:15 PM 51.8 °F - 46.4 °F 82% 30.25 in 10.0 mi NW 3.5 mph - N/A   Mostly Cloudy
2:35 PM 51.8 °F - 46.4 °F 82% 30.24 in 10.0 mi WNW 5.8 mph - N/A   Overcast
2:55 PM 50.0 °F - 46.4 °F 87% 30.26 in 4.0 mi WNW 5.8 mph - 0.01 in Rain Rain
3:15 PM 48.2 °F - 46.4 °F 93% 30.27 in 8.0 mi WNW 9.2 mph - 0.01 in Rain Light Rain
3:35 PM 48.2 °F - 46.4 °F 93% 30.28 in 10.0 mi NW 5.8 mph - 0.01 in Rain Light Rain
3:55 PM 46.4 °F 42.9 °F 44.6 °F 93% 30.29 in 10.0 mi NW 6.9 mph - 0.01 in   Light Drizzle
4:15 PM 44.6 °F 40.7 °F 42.8 °F 93% 30.29 in 10.0 mi WNW 6.9 mph 18.4 mph N/A   Overcast
4:35 PM 44.6 °F 42.2 °F 41.0 °F 87% 30.31 in 10.0 mi WNW 4.6 mph - 0.01 in Rain Light Rain
4:55 PM 44.6 °F 42.2 °F 41.0 °F 87% 30.31 in 10.0 mi WNW 4.6 mph - 0.01 in   Light Drizzle
5:15 PM 44.6 °F 41.4 °F 41.0 °F 87% 30.31 in 10.0 mi NW 5.8 mph - N/A   Light Drizzle
5:35 PM 44.6 °F 42.2 °F 41.0 °F 87% 30.32 in 10.0 mi NW 4.6 mph - N/A   Light Drizzle
5:55 PM 44.6 °F 40.7 °F 41.0 °F 87% 30.33 in 6.0 mi NW 6.9 mph - N/A Rain Heavy Rain
6:15 PM 42.8 °F 40.1 °F 41.0 °F 93% 30.34 in 10.0 mi West 4.6 mph - N/A   Overcast
6:35 PM 44.6 °F 42.2 °F 42.8 °F 93% 30.35 in 10.0 mi WNW 4.6 mph - N/A   Overcast
6:55 PM 44.6 °F 42.2 °F 42.8 °F 93% 30.36 in 10.0 mi WNW 4.6 mph - N/A   Overcast
7:15 PM 44.6 °F 43.1 °F 42.8 °F 93% 30.36 in 10.0 mi NW 3.5 mph - N/A   Overcast
7:35 PM 44.6 °F 40.2 °F 41.0 °F 87% 30.35 in 10.0 mi NW 8.1 mph - N/A Rain Light Rain
7:55 PM 44.6 °F 39.2 °F 37.4 °F 76% 30.36 in 10.0 mi WNW 10.4 mph 16.1 mph N/A   Overcast
8:15 PM 44.6 °F 39.7 °F 35.6 °F 71% 30.37 in 10.0 mi NW 9.2 mph 19.6 mph N/A   Overcast
8:35 PM 44.6 °F 38.8 °F 35.6 °F 71% 30.38 in 10.0 mi NW 11.5 mph 16.1 mph N/A   Overcast
8:55 PM 44.6 °F 39.2 °F 33.8 °F 66% 30.38 in 10.0 mi NW 10.4 mph 16.1 mph N/A   Overcast
9:15 PM 44.6 °F 39.2 °F 33.8 °F 66% 30.39 in 10.0 mi NW 10.4 mph - N/A   Overcast
9:35 PM 44.6 °F 39.7 °F 33.8 °F 66% 30.40 in 10.0 mi NW 9.2 mph 16.1 mph N/A   Overcast
9:55 PM 44.6 °F 40.2 °F 33.8 °F 66% 30.40 in 10.0 mi NW 8.1 mph 18.4 mph N/A   Overcast
10:15 PM 44.6 °F 39.7 °F 35.6 °F 71% 30.40 in 10.0 mi North 9.2 mph 18.4 mph N/A   Overcast
10:35 PM 44.6 °F 40.2 °F 35.6 °F 71% 30.41 in 9.0 mi North 8.1 mph 18.4 mph N/A   Light Drizzle
10:55 PM 44.6 °F 40.2 °F 35.6 °F 71% 30.41 in 10.0 mi NNW 8.1 mph - N/A   Light Drizzle
11:15 PM 44.6 °F 40.2 °F 35.6 °F 71% 30.41 in 10.0 mi NNW 8.1 mph - N/A   Light Drizzle
11:35 PM 44.6 °F 40.2 °F 37.4 °F 76% 30.41 in 8.0 mi North 8.1 mph - N/A Rain Light Rain
11:55 PM 44.6 °F 39.2 °F 39.2 °F 81% 30.41 in 10.0 mi North 10.4 mph 16.1 mph N/A Rain Light Rain